www.pogodaiklimat.ru
Время
и дата
05:54 30.12
06:03 30.12
06:54 30.12
07:54 30.12
08:06 30.12
08:54 30.12
09:08 30.12
09:18 30.12
09:54 30.12
10:32 30.12
10:54 30.12
11:54 30.12
12:54 30.12
13:54 30.12
14:54 30.12
15:54 30.12
16:54 30.12
17:54 30.12
18:54 30.12
19:19 30.12
19:54 30.12
20:54 30.12
21:25 30.12
21:54 30.12
22:54 30.12
23:54 30.12
00:54 31.12
01:54 31.12
02:54 31.12
03:54 31.12
04:54 31.12
05:54 31.12
06:29 31.12
06:54 31.12
07:02 31.12
07:54 31.12
08:54 31.12
09:54 31.12
10:54 31.12
11:16 31.12
11:54 31.12
12:27 31.12
12:54 31.12
13:54 31.12
14:54 31.12
15:54 31.12
16:54 31.12
17:54 31.12
Ветер
(напр.,м/с)
Видим. Явления Облачность Т
(С)
Тd
(С)
f
(%)
Тe
(С)
Тes
(С)
Комфортность P
(гПа)
Po
(гПа)
Тmin
(С)
Tmax
(С)
R
(мм)
R24
(мм)
S
(см)
В 1 3 км дымка 10/10 60 м +10.6 +10.6 100 +9 +9 1011.9 1005.3
СВ 1 5 км дымка 10/10 60 м +10.6 +10.6 100 +9 +9 1005.6
СВ 1 6 км дымка 10/10 60 м +10.6 +10.6 100 +9 +9 1012.6 1006.0 +10.6 +11.7 0.3 8.9
СВ 1 10 км дымка 10/10 90 м +10.6 +10.6 100 +9 +9 1013.1 1006.3
СВ 1 4 км дымка 10/10 90 м +10.6 +10.6 100 +9 +9 1006.6
С 1 2 км дымка 10/10 60 м +11.1 +10.6 97 +10 +10 1013.9 1007.3
СВ 1 800 м туман 10/10 60 м +11.1 +11.1 100 +9 +9 1007.3
С 1 4 км дымка 10/10 60 м +11.1 +10.6 97 +10 +10 1007.7
С 1 6 км дымка 10/10 90 м +11.1 +10.6 97 +10 +10 1014.5 1008.0
СВ 1 14 км 10/10 150 м +11.7 +11.1 96 +10 +10 1007.7
С 1 14 км 10/10 150 м +11.7 +11.1 96 +10 +10 1014.1 1007.3
С 1 16 км 10/10 150 м +12.2 +11.1 93 +11 +11 1013.6 1007.0
В 1 16 км 10/10 180 м +12.2 +11.1 93 +11 +11 1013.3 1006.6 +10.6 +12.8
Ю 1 16 км 10/10 180 м +12.2 +11.1 93 +11 +11 1013.2 1006.6
ЮВ 1 14 км 10/10 150 м +12.2 +11.7 97 +11 +11 1013.0 1006.3
штиль 0 13 км 10/10 150 м +12.2 +11.1 93 +12 +12 1013.4 1006.6
Ю 1 14 км 10/10 180 м +12.2 +11.1 93 +11 +11 1013.5 1007.0
Ю 1 3 км дымка 10/10 150 м +11.7 +11.7 100 +10 +10 1013.8 1007.3
ЮВ 1 3 км дымка 10/10 90 м +11.7 +11.7 100 +10 +10 1013.6 1007.0 +11.7 +12.2
ЮВ 1 2 км дымка 10/10 90 м +11.7 +11.7 100 +10 +10 1007.3
штиль 0 2 км дымка 10/10 90 м +11.7 +11.7 100 +11 +11 1014.0 1007.3
В 1 2 км дымка 10/10 90 м +11.7 +11.7 100 +10 +10 1013.9 1007.3
В 1 400 м туман ?/? +11.7 +11.7 100 +10 +10 1007.3
ЮВ 1 400 м туман ?/? +11.7 +11.7 100 +10 +10 1014.3 1007.7
В 1 400 м туман ?/? +11.7 +11.7 100 +10 +10 1014.0 1007.3
В 1 400 м туман ?/? +11.1 +11.1 100 +10 +10 1013.6 1007.0
штиль 0 400 м слабая морось, туман ?/? +11.1 +11.1 100 +10 +10 1013.4 1007.0 +11.1 +11.7
В 1 400 м слабая морось, туман ?/? +11.1 +11.1 100 +10 +10 1014.0 1007.3
штиль 0 400 м слабая морось, туман ?/? +11.1 +11.1 100 +10 +10 1013.9 1007.3
В 1 400 м слабая морось, туман ?/? +11.1 +11.1 100 +10 +10 1013.9 1007.3
ЮВ 1 400 м слабая морось, туман ?/? +10.6 +10.6 100 +9 +9 1013.9 1007.3
В 1 800 м слабая морось, туман ?/? +10.6 +10.6 100 +9 +9 1014.9 1008.3
штиль 0 2 км слабая морось, дымка 10/10 90 м +10.6 +10.6 100 +10 +10 1008.7
штиль 0 3 км слабая морось, дымка 10/10 90 м +10.6 +10.6 100 +10 +10 1015.4 1008.7 +10.6 +11.1 0.3 0.3
ЮВ 1 5 км слабая морось, дымка 10/10 90 м +10.6 +10.6 100 +9 +9 1008.7
ЮВ 1 10 км дымка 10/10 90 м +10.6 +10.6 100 +9 +9 1015.1 1008.7
ЮЗ 1 10 км дымка 10/10 120 м +11.1 +11.1 100 +9 +9 1016.4 1009.7
Ю 1 11 км дымка 10/10 120 м +12.2 +11.7 97 +10 +10 1016.8 1010.0
ЮЗ 1 14 км дымка 10/10 120 м +13.3 +12.2 93 +12 +12 1016.4 1009.7
Ю 1 16 км 10/10 150 м +13.9 +12.2 89 +13 +13 1009.3
ЮЗ 2 16 км 8/8 270 м +14.4 +12.2 87 +13 +14 1015.1 1008.3
Ю 2 16 км 8/8 330 м +14.4 +11.7 84 +13 +14 1008.0
Ю 2 16 км 8/5 360 м
[Ac]
+15.0 +11.7 81 +14 +15 1014.4 1007.7 +10.6 +15.6
Ю 2 16 км 8/2 1500 м
[Ac]
+16.1 +12.2 78 +15 +17 1014.0 1007.3
Ю 1 16 км 8/0 3300 м
[Ac]
+16.1 +12.2 78 +16 +17 1013.8 1007.3
Ю 2 16 км 8/0 2550 м
[Ac]
+15.6 +12.2 80 +15 +15 1014.2 1007.7
Ю 1 16 км слабый дождь 10/0 2100 м
[Ac]
+14.4 +12.2 87 +13 +14 1014.1 1007.3
Ю 2 16 км слабый дождь 10/0 3000 м
[Ac]
+13.9 +12.8 93 +12 +12 1013.5 1007.0
Местоположение метеостанции Richmond International Airport: широта 37.5111 долгота -77.3233 высота над уровнем моря 51 м.
В архиве по умолчанию представлена погода в Ричмонде за последние 1-2 суток. Обновление информации о фактической погоде в базе происходит ежечасно! Архивные данные за месяц целиком и за предыдущие месяцы Вы можете получить, выбрав интересующий диапазон дат из раскрывающегося списка и нажав кнопку "Ввод!".
Внимание! Архив погоды МЕТАР в базе сайта по станциям, не включенным в климатический монитор, хранится не более 60 дней. Нет смысла пытаться выбрать более раннюю дату.
*Определитесь, кто Вы:
Внимание! Время в таблицах - местное (без учета летнего времени). Для получения всемирного времени необходимо вычесть поправку, которая равна -5 ч.
Смотрите также архив погоды в соседних городах и на ближайших метеорологических станциях:
Партнеры нашего сайта:      
Пояснения к столбцам:
  • Ветер - указаны скорость ветра в м/с - средняя за 10 мин, порывы в срок и между сроками (в фигурных скобках) и направление, откуда дует ветер: С - северный,
  • СВ - северо-восточный, В - восточный, ЮВ - юго-восточный, Ю - южный, ЮЗ - юго-западный, З - западный, СЗ - северо-западный.
  • Видимость - горизонтальная дальность видимости в метрах или километрах. При видимости от 1 до 10 км при отсутствии осадков обычно наблюдается дымка, при ухудшении видимости до 1 км и менее - туман. В сухую погоду видимость может ухудшаться дымом, пылью или мглою.
  • Явления - указаны атмосферные явления, наблюдавшиеся в срок или в последний час перед сроком; фигурными скобками обозначены явления, наблюдавшиеся между сроками (за 1-3 часа до срока); квадратными скобками обозначены град или гололедные отложения с указанием их диаметра в мм.
  • Облачность - указаны через наклонную черту общая и нижняя облачность в баллах и высота нижней границы облаков в метрах; квадратными скобками обозначены формы облаков: Ci - перистые, Cs - перисто-слоистые, Cc - перисто-кучевые, Ac - высококучевые, As - высокослоистые, Sc - слоисто-кучевые, Ns - слоисто-дождевые, Cu - кучевые, Cb - кучево-дождевые. Подробнее классификацию облаков см. в Атласе облаков (PDF).
  • T - Температура воздуха - температура, измеренная на высоте 2 м над землей.
  • Td - Температура точки росы - температура, при понижении до которой содержащийся в воздухе водяной пар достигнет насыщения.
  • f - Относительная влажность воздуха - влажноcть воздуха, измеренная на высоте 2 м над землей.
  • Te - Эффективная температура - температура, которую ощущает одетый по сезону человек в тени. Характеристика душности погоды. При расчете учитывается влияние влажности воздуха и скорости ветра на теплоощущения человека.
  • Tes - Эффективная температура на солнце - температура, которую ощущает человек, с поправкой на солнечный нагрев. Характеристика знойности погоды. Зависит от высоты солнца над горизонтом, облачности и скорости ветра. Ночью, в пасмурную погоду, а также при ветре 12 м/с и более поправка равна нулю.
  • P - Атмосферное давление - приведенное к уровню моря атмосферное давление.
  • Po - Атмосферное давление - измеренное на уровне метеостанции атмосферное давление.
  • Tmin - Минимальная температура - минимум температуры воздуха на высоте 2 м над землей.
  • Tmax - Максимальная температура - максимум температуры воздуха на высоте 2 м над землей.
  • R - Количество осадков - Количество выпавших осадков за период времени, мм. При наведении курсора мыши на число - период времени, за который выпало указанное количество осадков.
  • R24 - Количество осадков - Количество выпавших осадков за 24 часа, мм.
  • S - Снежный покров - Высота снежного покрова, см. При наведении курсора мыши на число - состояние снежного покрова и степень покрытия местности в баллах.